Tracking 19792 objects as of 15-Jul-2019
HD Live streaming from Space Station
objects crossing your sky now

NOAA 16 DEB

Track NOAA 16 DEB now!
10-day predictions


NORAD ID: 41508
Int'l Code: 2000-055MG
Perigee: 823.2 km
Apogee: 868.7 km
Inclination: 98.9 °
Period: 101.7 minutes
Semi major axis: 7216 km
RCS: Unknown
Launch date: September 21, 2000
Source: United States (US)
Launch site: AIR FORCE WESTERN TEST RANGE (AFWTR)

Note: This is SATELLITE DEBRIS
aabbcc
Your satellite tracking list
Your tracking list is empty




NASA's NSSDC Master Catalog

Two Line Element Set (TLE):
1 41508U 00055MG  19196.06805200  .00000390  00000-0  21909-3 0  9991
2 41508  98.8669 279.8782 0031501   0.0971   0.0204 14.16025545167290
Source of the keplerian elements: AFSPC